Location: *
(38.4303°S, 157.0822°W)
Time: 15:20:53
(UTC+00:00)

Lacrosse 5 - Pass Details

Date: 21 May 2024
Orbit: 714 x 724 km, 57.0° (Epoch: 09 March)

Event Time Altitude Azimuth Distance (km) Brightness Sun altitude
Exits shadow 16:57:37 - 213° (SSW) 2,987 4.6 -6.5°
Reaches altitude 10° 17:00:35 10° 191° (SSW) 2,227 4.1 -5.9°
Maximum altitude 17:03:23 15° 158° (SSE) 1,930 4.1 -5.4°
Drops below altitude 10° 17:06:10 10° 125° (SE) 2,219 4.9 -4.9°
Sets 17:09:40 0° 100° (E) 3,134 6.3 -4.3°
